Weather History for Kingman, AZ

Change the Weather History Date:

Sunday, May 10, 2009

  Actual Average Record
Temperature  
Mean Temperature 74 °F 67 °F  
Max Temperature 91 °F 83 °F 100 °F (1934)
Min Temperature 57 °F 51 °F 33 °F (1908)
Degree Days  
Heating Degree Days 0 2  
Month to date heating degree days 29  
Since 1 July heating degree days 3075  
Cooling Degree Days 9 4  
Month to date cooling degree days 33  
Year to date cooling degree days 64  
Growing Degree Days 24 (Base 50)    
Moisture  
Dew Point 29 °F    
Average Humidity 19    
Maximum Humidity 37    
Minimum Humidity 9    
Precipitation  
Precipitation 0.00 in 0.00 in 0.20 in (1947)
Month to date precipitation 0.07  
Year to date precipitation 3.40  
Sea Level Pressure  
Sea Level Pressure 29.70 in    
Wind  
Wind Speed 8 mph (SSW)    
Max Wind Speed 21 mph    
Max Gust Speed 28 mph    
Visibility 10 miles    
Events      
T = Trace of Precipitation, MM = Missing Value Source: NWS Daily Summary

Daily Weather History Graph

Daily Weather History Graph

Search for Another Location

Airport:

Trip Planner

Search our weather history database for the weather conditions in past years. The results will help you decide how hot, cold, wet, or windy it might be!

Date:

Astronomy

May. 10, 2009 Rise Set
Actual Time 5:35 AM MST 7:29 PM MST
Civil Twilight 5:07 AM MST 7:57 PM MST
Nautical Twilight 4:33 AM MST 8:31 PM MST
Astronomical Twilight 3:57 AM MST 9:07 PM MST
Moon 9:28 PM MST (5/10) 6:15 AM MST (5/10)
Length of Visible Light 14h 49m
Length of Day
13h 53m
Full, 97% of the Moon is Illuminated
May 10
Full
May 17
Last Quarter
May 24
New
May 30
First Quarter
Jun 7
Full

Hourly Weather History & Observations

Time (MST) Temp. Dew Point Humidity Pressure Visibility Wind Dir Wind Speed Gust Speed Precip Events Conditions
12:54 AM 71.1 °F 30.9 °F 23% 29.66 in 10.0 mi Calm Calm - N/A   Clear
1:54 AM 64.0 °F 32.0 °F 30% 29.67 in 10.0 mi SSE 9.2 mph - N/A   Clear
2:54 AM 62.1 °F 33.1 °F 34% 29.67 in 10.0 mi South 5.8 mph - N/A   Clear
3:54 AM 63.0 °F 33.1 °F 33% 29.67 in 10.0 mi South 8.1 mph - N/A   Clear
4:54 AM 57.0 °F 30.9 °F 37% 29.69 in 10.0 mi SE 6.9 mph - N/A   Clear
5:54 AM 64.9 °F 30.0 °F 27% 29.69 in 10.0 mi SE 11.5 mph - N/A   Clear
6:54 AM 73.0 °F 33.1 °F 23% 29.70 in 10.0 mi ESE 6.9 mph - N/A   Clear
7:54 AM 79.0 °F 33.1 °F 19% 29.73 in 10.0 mi Variable 6.9 mph - N/A   Clear
8:54 AM 80.1 °F 33.1 °F 18% 29.75 in 10.0 mi SW 3.5 mph - N/A   Clear
9:54 AM 84.0 °F 30.0 °F 14% 29.75 in 10.0 mi SW 9.2 mph 18.4 mph N/A   Clear
10:54 AM 86.0 °F 26.1 °F 11% 29.75 in 10.0 mi WSW 10.4 mph 19.6 mph N/A   Clear
11:54 AM 88.0 °F 28.9 °F 12% 29.74 in 10.0 mi WSW 9.2 mph - N/A   Clear
12:54 PM 90.0 °F 27.0 °F 10% 29.72 in 10.0 mi WSW 15.0 mph 25.3 mph N/A   Clear
1:54 PM 91.0 °F 26.1 °F 10% 29.71 in 10.0 mi WSW 19.6 mph 25.3 mph N/A   Clear
2:54 PM 91.0 °F 25.0 °F 9% 29.70 in 10.0 mi WSW 19.6 mph 26.5 mph N/A   Clear
3:54 PM 91.0 °F 24.1 °F 9% 29.68 in 10.0 mi WSW 20.7 mph 27.6 mph N/A   Clear
4:54 PM 90.0 °F 24.1 °F 9% 29.68 in 10.0 mi SW 12.7 mph - N/A   Clear
5:54 PM 89.1 °F 25.0 °F 10% 29.67 in 10.0 mi SW 15.0 mph 21.9 mph N/A   Clear
6:54 PM 84.9 °F 26.1 °F 12% 29.67 in 10.0 mi SW 11.5 mph - N/A   Clear
7:54 PM 75.0 °F 26.1 °F 16% 29.68 in 10.0 mi SSW 9.2 mph - N/A   Clear
8:54 PM 75.0 °F 27.0 °F 17% 29.69 in 10.0 mi South 11.5 mph - N/A   Clear
9:54 PM 72.0 °F 26.1 °F 18% 29.70 in 10.0 mi South 10.4 mph - N/A   Clear
10:54 PM 66.9 °F 26.1 °F 21% 29.71 in 10.0 mi SSE 8.1 mph - N/A   Clear
11:54 PM 66.0 °F 27.0 °F 23% 29.71 in 10.0 mi Calm Calm - N/A   Clear